Regional Weather Roundup
Issued by NWS

Home | Current Version | Previous Version | Text Only | Print | Product List | Glossary On
Versions: 1 2 3 4 5 6 7 8 9 10 11 12 13 14 15 16 17 18 19 20 21 22 23 24 25 26 27 28 29 30 31 32 33 34 35 36 37 38 39 40 41 42 43 44 45 46 47 48 49 50
000
ASUS43 KLMK 021202
RWRKY
KENTUCKY REGIONAL WEATHER ROUNDUP
NATIONAL WEATHER SERVICE LOUISVILLE KY
800 AM EDT THU JUL 02 2015

NOTE "FAIR" INDICATES FEW OR NO CLOUDS BELOW 12,000 FEET
WITH NO SIGNIFICANT WEATHER AND/OR OBSTRUCTIONS TO VISIBILITY.

KYZ001>023-026-027-061>063-070>075-021300-
WESTERN AND SOUTH CENTRAL KENTUCKY

CITY           SKY/WX    TMP DP  RH WIND       PRES   REMARKS
PADUCAH        CLOUDY    70  68  93 S6        29.85F
HENDERSON      CLOUDY    70  66  88 CALM      29.85R
OWENSBORO      CLOUDY    70  68  93 S8        29.86S
HOPKINSVILLE   LGT RAIN  69  68  97 SE7       29.89S
BOWLING GREEN  RAIN      70  67  90 SE9       29.91F
GLASGOW        NOT AVBL
$$

KYZ024-025-028>034-038-045-046-053-021300-
NORTH CENTRAL KENTUCKY

CITY           SKY/WX    TMP DP  RH WIND       PRES   REMARKS
LOUISVILLE/SDF LGT RAIN  70  68  93 S6        29.87S FOG
LOUISVILLE/LOU CLOUDY    70  68  93 S5        29.88S FOG
FORT KNOX      LGT RAIN  68  67  96 S5        29.87F
$$

KYZ035>037-039>044-047>052-055>060-089>105-021300-
NORTHEAST KENTUCKY

CITY           SKY/WX    TMP DP  RH WIND       PRES   REMARKS
LEXINGTON      CLOUDY    68  66  93 S6        29.92R
COVINGTON      CLOUDY    69  67  93 S5        29.89S FOG
FRANKFORT      CLOUDY    69  66  90 S3        29.89S FOG
$$

KYZ054-064>069-076>088-106>120-021300-
SOUTHEAST KENTUCKY

CITY           SKY/WX    TMP DP  RH WIND       PRES   REMARKS
JACKSON        LGT RAIN  67  64  90 CALM      29.95S FOG
LONDON         LGT RAIN  67  62  84 S3        29.96R
SOMERSET       NOT AVBL
MIDDLESBORO    NOT AVBL
MONTICELLO     CLOUDY    68  68 100 CALM      29.98R FOG
$$



USA.gov is the U.S. government's official web portal to all federal, state and local government web resources and services.